Location: Dana
(41.8364°N, 106.7042°W)
Time: 13:34:45
(UTC+00:00)

Altair - Pass Details

Date: 16 May 2026
Orbit: 1501 x 1682 km, 47.2° (Epoch: 6 June)

Event Time Altitude Azimuth Distance (km) Brightness Sun altitude
Rises 12:18:11 0° 242° (WSW) 4,816 9.4 4.7°
Reaches altitude 10° 12:21:15 10° 242° (WSW) 3,854 9.0 5.2°
Maximum altitude 12:31:13 90° 154° (SSE) 1,669 7.9 7.0°
Drops below altitude 10° 12:41:26 10° 66° (ENE) 3,948 12.6 8.8°
Sets 12:44:37 0° 66° (ENE) 4,938 12.4 9.3°
